Regional Weather Roundup
Issued by NWS Sterling, VA

Home | Current Version | Previous Version | Text Only | Print | Product List | Glossary Off
Versions: 1 2 3 4 5 6 7 8 9 10 11 12 13 14 15 16 17 18 19 20 21 22 23 24 25 26 27 28 29 30 31 32 33 34 35 36 37 38 39 40 41 42 43

000
ASUS41 KLWX 271810
RWRLWX

REGIONAL WEATHER ROUNDUP
NATIONAL WEATHER SERVICE BALTIMORE MD/WASHINGTON DC
100 PM EST SAT DEC 27 2014

Note: "FAIR" indicates few or no clouds below 12,000 feet
with no significant weather and/or obstructions to visibility.
 TC=TEMPERATURE CELSIUS

 * =Non NWS site. Station does not report precipitation (e.g. rain,
    snow, etc.), thunder, or fog.

DCZ001-MDZ009-015-VAZ040>042-051-053>054-271900-
WASHINGTON METRO

CITY           SKY/WX    TMP DP  RH WIND       PRES   REMARKS
WASHINGTON NAT CLOUDY    56  35  45 CALM      30.22F
DULLES         PTSUNNY   56  29  35 CALM      30.21F
ANDREWS AFB    SUNNY     55  34  45 VRB1      30.20F
FT BELVOIR     SUNNY     56  37  49 SE2       30.22F
QUANTICO       SUNNY     45  36  70 E8        30.23F
COLLEGE PARK*  SUNNY     59  28  31 CALM      30.20F
LEESBURG*      SUNNY     57  32  38 CALM      30.21F
GAITHERSBURG*  SUNNY     57  27  30 NW3       30.24F

$$

MDZ006>007-011-014-271900-
BALTIMORE METRO

CITY           SKY/WX    TMP DP  RH WIND       PRES   REMARKS
BWI AIRPORT    PTSUNNY   57  31  37 VRB3      30.20F
MD SCIENCE CTR   N/A     56  34  43 MISG      30.25F
MARTIN STATE   MOSUNNY   52  43  71 SE6       30.24F
ANNAPOLIS      SUNNY     44  39  82 SE8       30.23F
FORT MEADE*    SUNNY     57  28  33 CALM      30.23F

$$

MDZ012-015-019>023-271900-
MARYLAND EASTERN SHORE

CITY           SKY/WX    TMP DP  RH WIND       PRES   REMARKS
OCEAN CITY     SUNNY     54  41  61 S5        30.24F
SALISBURY      SUNNY     63  35  35 W7        30.22F
BAY BRIDGE AP*   N/A     46  36  66 CALM      30.23F
CAMBRIDGE*     SUNNY     55  39  54 CALM      30.21F
EASTON*        SUNNY     55  39  54 CALM      30.27

$$

MDZ017>025-271900-
SOUTHERN MARYLAND

CITY           SKY/WX    TMP DP  RH WIND       PRES   REMARKS
PATUXENT RIVER PTSUNNY   49  38  65 E6        30.22F
ST INIGOES     SUNNY     58  37  45 VRB6      30.21F
LEONARDTOWN*   SUNNY     55  37  50 NE5       30.23F

$$

MDZ003>005-271900-
NORTH CENTRAL MARYLAND

CITY           SKY/WX    TMP DP  RH WIND       PRES   REMARKS
FREDERICK*     SUNNY     59  28  31 CALM      30.24F
HAGERSTOWN APT SUNNY     54  28  36 S3        30.18F
WESTMINSTER*   SUNNY     55  21  26 W3        30.20F

$$

MDZ501>502-271900-
WESTERN MARYLAND

CITY           SKY/WX    TMP DP  RH WIND       PRES   REMARKS
OAKLAND*       SUNNY     52  19  28 SW5       30.16F
CUMBERLAND*    SUNNY     54  32  43 CALM      30.22F

$$

VAZ025>031-271900-
SHENANDOAH VALLEY

CITY           SKY/WX    TMP DP  RH WIND       PRES   REMARKS
WINCHESTER*    SUNNY     57  21  24 CALM      30.20F
FRONT ROYAL*   FAIR      55  28  35 CALM      30.20F
LURAY*         FAIR      61  32  33 CALM      30.20S
NEW MARKET*    FAIR      58  32  37 SW6       30.19F
STAUNTON*      MOSUNNY   58  30  34 CALM      30.22F
WAYNESBORO*    FAIR      60  19  20 SW6       30.21F

$$

WVZ021-048>050-054>055-271900-
EASTERN WEST VIRGINIA PANHANDLE

CITY           SKY/WX    TMP DP  RH WIND       PRES   REMARKS
MARTINSBURG    SUNNY     56  30  37 VRB3      30.20F
PETERSBURG*    MOSUNNY   59  21  22 CALM      30.18F

$$

VAZ036>039-050-271900-
CENTRAL FOOTHILLS

CITY           SKY/WX    TMP DP  RH WIND       PRES   REMARKS
CHARLOTTESVILL SUNNY     61  26  26 S3        30.20F
CULPEPER*      SUNNY     55  34  44 CALM      30.22F
ORANGE*        SUNNY     59  34  38 CALM      30.23S
GORDONSVILLE*  FAIR      58  35  41 S3        30.20R
WARRENTON*     FAIR      56  41  56 CALM      30.21F

$$

VAZ055>057-271900-
NORTH AND CENTRAL PIEDMONT

CITY           SKY/WX    TMP DP  RH WIND       PRES   REMARKS
FREDERICKSBRG* SUNNY     56  38  50 N3        30.21F
STAFFORD*      SUNNY     55  34  45 CALM      30.25F

$$

NCZ024-NYZ072-PAZ021-071-VAZ022-071-271900-
OTHER REGIONAL OBSERVATIONS

CITY           SKY/WX    TMP DP  RH WIND       PRES   REMARKS
NEW YORK CITY  SUNNY     53  31  42 CALM      30.22F
PHILADELPHIA   MOSUNNY   53  34  48 W5        30.23F
PITTSBURGH     PTSUNNY   55  34  45 S13       30.13F
ROANOKE        MOSUNNY   62  21  20 W3        30.23F
RICHMOND       PTSUNNY   62  37  39 S9        30.21F
RALEIGH        MOSUNNY   59  37  44 S7        30.25F

$$

ANZ530>537-271900-
MARINE OBSERVATIONS

STATION/POSITION TIME  TEMP    WIND        PRES
                       AIR SEA DIR/SP/G
                 (UTC) (F)     (DEG/KT/KT) (MB)
THOMAS PT LIGHT  1800   44 43   CALM  /  1 1024.7F
BALT KEY BRIDGE  1800   43     120/  5/  6 1023.4F
COVE POINT       1800   45      20/  2/  2 1023.4F
LEWISETTA        1800   45 45   90/  6/  7 1022.7F
SOLOMONS ISLAND  1800      44                N/A
PINEY POINT      1800          300/  2/  2   N/A

$$



USA.gov is the U.S. government's official web portal to all federal, state and local government web resources and services.